STARLINK-36293, 68515

Orbit data source: Space-Track

STARLINK-36293, 68515 is a payload satellite owned by SpaceX/Seattle (US) in LEO that was launched on Mon, 30 Mar 2026 UTC via an FALCON 9 launch vehicle from the Air Force Eastern Test Range (AFETR). Payload-class satellites include a variety of spacecraft equipped with specific instruments for various scientific and technological missions. These include communications satellites like Starlink; space stations such as the ISS; scientific satellites like the Hubble; Earth observation satellites from companies like Planet Labs, Umbra, and HawkEye 360; GPS; miniature CubeSats for education and research; and military/defense satellites.

Loading next visibility...
Identifier
68515, 2026-068H
Orbit
LEO
Country
Flag of USUS
Related business
Manufacturer
SpaceX/Seattle
Mission
Operational spacecraft
Bus & Motor
STARLINK V2MO, Unknown motor
Mass
575 kg wet, ~530 kg dry
Launch date (UTC)
2026-03-30 (3 months ago)
Launch vehicle
FALCON 9
Launch site
Air Force Eastern Test Range (AFETR)
Object type
Payload
Rocket body
Debris
Shape & HBR
Unknown shape, 3.1 m
Radar Cross Section
Large (>1 m²)

Expand to show TLE details & history
Last TLE update: 19 hours ago

TLE from 19 hours ago
0 STARLINK-36293
1 68515U 26068H   26171.06353031  .00022837  00000-0  68446-3 0  9998
2 68515  53.1584  11.9959 0000447 130.9691 229.1350 15.34422761 12641
Epoch: 2026-06-20T01:31Z
TLE epoch observation values (Epoch: 2026-06-20T01:31:29.018Z)
Latitude
-0.00006°
Longitude
80.84141°
Altitude
463.737 km
Speed
7.636 km/s
True Right ascension
00h 47m 59s
True Declination
0° 00' 00"
Sunlit
Object was in daylight at epoch
Visualization orbit readout
Latitude
Unknown
Longitude
Unknown
Altitude
Unknown
Speed
Unknown
Apparent Right ascension
Unknown
Apparent Declination
Unknown
Sunlit
N/A
Visualization observer readout
Local Sidereal Time
07:21:15
Azimuth
Unknown
Elevation
Unknown
Doppler factor
Unknown
Orbital elements
Apogee altitude
463.199 km
Perigee altitude
462.587 km
Semi-major axis
6,841.03 km
Eccentricity
0.00004
Inclination
53.1584°
RAAN
11.9959°
Arg. of periapsis
130.9691°
True anomaly
229.13113°
Mean anomaly
229.135°
Eccentric anomaly
229.13306°
Mean motion
3.83584 °/min
Orbital period
93.85 mins
BSTAR
0.00068446
Loading maneuver chart data...
Computing Atmospheric mass density...
Loading historical data...
Loading historical data...
Loading historical data...
Loading historical data...
Loading historical data...
Loading historical data...
Loading historical data...

Documentation

Showing up to 5 results
|